Location: B�rgermoos
(47.6500°N, 9.0667°E)
Time: 06:19:30
(UTC+00:00)

Cosmos 1300 Rocket - Pass Details

Date: 18 September 2020
Orbit: 602 x 626 km, 82.5° (Epoch: 22 October)

Event Time Altitude Azimuth Distance (km) Brightness Sun altitude
Rises 18:16:32 0° 161° (SSE) 2,876 6.7 -8.8°
Reaches altitude 10° 18:18:56 10° 150° (SSE) 1,980 5.8 -9.1°
Maximum altitude 18:22:45 30° 90° (E) 1,118 4.3 -9.8°
Drops below altitude 10° 18:26:38 10° 29° (NNE) 2,006 6.0 -10.4°
Sets 18:29:04 0° 19° (NNE) 2,921 7.0 -10.8°
